BSB police report ending September 14, 2017

Print
"09/13/2017","00:08","217CR0024011","ATL","ATL","I90 MM 216 EB","",""
"09/13/2017","00:25","217CR0024012","T/S","T/S @ GOLD AND MONTANA","GOLD AND MONTANA","",""
"09/13/2017","00:44","217CR0024013","DISTURBANCE","DISTURBANCE","609 SILVERBOW HOMES","",""
"09/13/2017","01:34","217CR0024014","HARASSMENT","HARASSMENT","","",""
"09/13/2017","01:36","217CR0024015","DISTURBANCE","DISTURBANCE","226 W SILVER #21","",""
"09/13/2017","02:47","217CR0024016","SUSPICIOUS ACTIVITY","SUSPICIOUS ACTIVITY","ALABAMA AND GRANITE","",""
"09/13/2017","03:35","217CR0024017","STOLEN VEHICLE","STOLEN VEHICLE","","",""
"09/13/2017","04:00","217CR0024018","SUSPICIOUS ACTIVITY","SUSPICIOUS ACTIVITY","2900 BLK SANDERS","",""
"09/13/2017","04:23","217CR0024019","BUSINESS CHECK","BUSINESS CHECK","1370 HARRISON/TOWN PUMP","",""
"09/13/2017","04:42","217CR0024020","SUSPICIOUS ACTIVITY","SUSPICIOUS ACTIVITY","2930 SANDERS","",""
"09/13/2017","05:30","217CR0024021","MEDICAL - EMERGENCY","MEDICAL - EMERGENCY","1325 W QUARTZ #102","",""
"09/13/2017","05:49","217CR0024022","T/S","T/S","IRON ST AND WASHINGTON","",""
"09/13/2017","06:15","217CR0024023","ASSAULT","ASSAULT","************","",""
"09/13/2017","06:59","217CR0024024","VANDALISM/CRIMINAL MISCHIEF","CRIMINAL MISCHIEF","2711 HARRISON AVE","",""
"09/13/2017","07:15","217CR0024025","T/S","T/S @ FARRAGUT AND S DRIVE","FARRAGUT AND S DRIVE","",""
"09/13/2017","07:18","217CR0024026","THEFT","CRIMINAL MISCHIEF","1922 S WASHINGTON ST","",""
"09/13/2017","07:44","217CR0024027","DRUGS","DRUGS","************","",""
"09/13/2017","07:48","217CR0024028","THEFT","THEFT FROM MOTOR VEHICLE","1905 S WASHINGTON","",""
"09/13/2017","07:53","217CR0024029","UNWANTED PERSON","CRIMINAL TRESPASS TO PROPERTY","531 S MONTANA ST","ARREST(s) MADE",""
"09/13/2017","08:00","217CR0024030","THEFT","THEFT FROM MOTOR VEHICLE","1903 S WASHINGTON","",""
"09/13/2017","08:16","217CR0024031","THEFT","THEFT FROM MOTOR VEHICLE","1914 S IDAHO","",""
"09/13/2017","08:17","217CR0024032","THEFT","THEFT FROM MOTOR VEHICLE","1922 S IDAHO","",""
"09/13/2017","08:31","217CR0024033","THEFT","THEFT FROM MOTOR VEHICLE","1928 S JACKSON","",""
"09/13/2017","09:21","217CR0024034","THEFT","THEFT","122000 W BROWNS GULCH","",""
"09/13/2017","09:23","217CR0024035","ALARM - BURGLARY","ALARM - BURGLARY","************","",""
"09/13/2017","09:26","217CR0024036","BURGLARY","BURGLARY","1900 S FRANKLIN","",""
"09/13/2017","10:01","217CR0024038","SUICIDE ATTEMPT/THREAT","SUICIDE ATTEMPT/THREAT","************","",""
"09/13/2017","10:07","217CR0024039","ABANDONED VEHICLE","ABANDONED VEHICLE","1700 BLK DELAWARE","",""
"09/13/2017","10:12","217CR0024040","WELFARE CHECK","WELFARE CHECK","105 STAR LANE","",""
"09/13/2017","10:18","217CR0024041","THEFT","THEFT, SHOPLIFT","3700 HARRISON AVE","",""
"09/13/2017","10:28","217CR0024042","DETENTION BUSINESS","DETENTION BUSINESS","************","",""
"09/13/2017","10:41","217CR0024043","THEFT","THEFT FROM MOTOR VEHICLE","1906 S WASHINGTON","",""
"09/13/2017","10:57","217CR0024044","T/S","T/S","ELIZABETH WARREN AND BURNING T","",""
"09/13/2017","10:57","217CR0024045","ATL","ATL","","",""
"09/13/2017","11:02","217CR0024046","ABANDONED VEHICLE","ABANDONED VEHICLE","2ND ST AND MONTANA ST","",""
"09/13/2017","11:04","217CR0024047","THEFT","THEFT, ALL OTHERS","531 S MONTANA LUCKY LILS CASIN","",""
"09/13/2017","11:23","217CR0024050","ALARM - FIRE","ALARM - FIRE","401 S WYOMING","",""
"09/13/2017","11:30","217CR0024051","LED BUSINESS","LED BUSINESS","155 W GRANITE ST","",""
"09/13/2017","11:33","217CR0024052","ATL","DUI DRUGS OR ALCOHOL","BROADWAY AND WYOMING","ARREST(s) MADE",""
"09/13/2017","11:36","217CR0024053","THEFT","THEFT FROM MOTOR VEHICLE","1903 S IDAHO","",""
"09/13/2017","11:38","217CR0024054","ASSIST OTHER AGENCY","ASSIST OTHER AGENCY","112 SIMON LN","",""
"09/13/2017","11:58","217CR0024055","CIVIL PAPER SERVICE","CIVIL PAPER SERVICE","2850 ST ANN","",""
"09/13/2017","12:02","217CR0024056","LED BUSINESS","LED BUSINESS","","",""
"09/13/2017","12:04","217CR0024058","THEFT","THEFT","2400 CONTINENTAL","",""
"09/13/2017","12:04","217CR0024057","WELFARE CHECK","WELFARE CHECK","1708 GLADSTONE","",""
"09/13/2017","12:09","217CR0024059","CIVIL STANDBY","CIVIL STANDBY","308 W GRANITE","",""
"09/13/2017","12:30","217CR0024060","STOLEN VEHICLE","STOLEN VEHICLE","1125 S MAIN #404","",""
"09/13/2017","12:41","217CR0024062","WELFARE CHECK","WELFARE CHECK","220 N WYOMING","",""
"09/13/2017","12:45","217CR0024063","LED BUSINESS","LED BUSINESS","725 MARYLAND AVE","",""
"09/13/2017","12:51","217CR0024064","ATL","ATL","24 E COPPER","",""
"09/13/2017","12:56","217CR0024065","LED BUSINESS","LED BUSINESS","106 MULLEN","",""
"09/13/2017","13:03","217CR0024066","THEFT","THEFT","230 S WASHINGTON #201","",""
"09/13/2017","13:07","217CR0024067","ACCIDENT","ACCIDENT","1000 BLK E FRONT ST","",""
"09/13/2017","13:25","217CR0024068","THEFT","THEFT, ALL OTHERS","2035 CALIFORNIA AVE","",""
"09/13/2017","13:37","217CR0024070","CIVIL STANDBY","CIVIL STANDBY","","",""
"09/13/2017","13:38","217CR0024069","CIVIL PAPER SERVICE","CIVIL PAPER SERVICE","1716 YALE","",""
"09/13/2017","13:55","217CR0024071","MAN WITH A GUN","MAN WITH A GUN","************","",""
"09/13/2017","14:16","217CR0024072","T/S","T/S @ PLATINUM AND S DAKOTA","PLATINUM AND S DAKOTA","",""
"09/13/2017","14:34","217CR0024073","SUSPICIOUS ACTIVITY","AGGRAVATED DUI","3200 BLK MOULTON ST","ARREST(s) MADE",""
"09/13/2017","14:34","217CR0024074","ASSIST OTHER AGENCY","ASSIST OTHER AGENCY","112 DIAMOND","",""
"09/13/2017","15:03","217CR0024075","ASSIST OTHER AGENCY","ASSIST OTHER AGENCY","GRAND AVE AND FLORENCE AVE","",""
"09/13/2017","15:51","217CR0024076","T/S","T/S @ LEXINGTON AND GEORGE","LEXINGTON AND GEORGE","",""
"09/13/2017","16:10","217CR0024077","THEFT","THEFT","108 S ARIZONA","",""
"09/13/2017","16:17","217CR0024078","T/S","T/S @ PACIFIC STEEL","PACIFIC STEEL","",""
"09/13/2017","16:24","217CR0024079","T/S","T/S @ 3900 BLK HARRISON","3900 BLK HARRISON","",""
"09/13/2017","16:28","217CR0024080","T/S","T/S @ HOWARD ST AND GRAND AVE","HOWARD ST AND GRAND AVE","",""
"09/13/2017","16:30","217CR0024081","ACCIDENT","ACCIDENT","DEWEY AND LEXINGTON","",""
"09/13/2017","16:34","217CR0024082","MISSING PERSON","MISSING PERSON","************","",""
"09/13/2017","16:38","217CR0024083","ALL OTHER","ALL OTHER","237 E MERCURY","",""
"09/13/2017","16:48","217CR0024084","DISTURBANCE","DISTURBANCE","MONTANA ST AND PARK ST","",""
"09/13/2017","16:55","217CR0024085","SUSPICIOUS ACTIVITY","SUSPICIOUS ACTIVITY","828 EMMA ST","",""
"09/13/2017","16:59","217CR0024086","VEHICLE INSPECTION","VEHICLE INSPECTION","742 S MAIN ST","",""
"09/13/2017","17:59","217CR0024087","UNWANTED PERSON","UNWANTED PERSON","************","",""
"09/13/2017","18:09","217CR0024088","T/S","T/S @ PARK ST AND CLARK ST","PARK ST AND CLARK ST","",""
"09/13/2017","18:10","217CR0024089","SUSPICIOUS ACTIVITY","SUSPICIOUS ACTIVITY","1515 OREGON AVE","",""
"09/13/2017","18:27","217CR0024090","THEFT","THEFT, SHOPLIFT","3901 HARRISON AVE","ARREST(s) MADE",""
"09/13/2017","18:31","217CR0024091","DISTURBANCE","DISTURBANCE","401 W GRANITE","",""
"09/13/2017","18:38","217CR0024092","HIT AND RUN","HIT AND RUN","501 W GRANITE ST","",""
"09/13/2017","18:58","217CR0024093","LED BUSINESS","LED BUSINESS","N WYOMING ST AND COPPER ST","",""
"09/13/2017","19:01","217CR0024094","MEDICAL - EMERGENCY","MEDICAL - EMERGENCY","2420 ST ANNS","",""
"09/13/2017","19:22","217CR0024095","T/S","T/S @ ","","",""
"09/13/2017","19:23","217CR0024096","ALL OTHER","ALL OTHER","200 BLK N JACKSON","",""
"09/13/2017","19:28","217CR0024097","ASSIST OTHER AGENCY","ASSIST OTHER AGENCY","I15 126 127 EB","",""
"09/13/2017","19:34","217CR0024098","SUSPICIOUS ACTIVITY","POSSESS DRUG PARAPHERNALIA","900 BLK S MONTANA","ARREST(s) MADE",""
"09/13/2017","19:34","217CR0024099","ATL","ATL","1100 BLK DELAWARE","",""
"09/13/2017","19:52","217CR0024100","T/S","T/S @ HARRISON AND B ST","HARRISON AND B ST","",""
"09/13/2017","20:37","217CR0024101","T/S","T/S @ GRANITE AND IDAHO","GRANITE AND IDAHO","",""
"09/13/2017","20:42","217CR0024102","HARASSMENT","ASSAULT WITH WEAPON","31 N MAIN","",""
"09/13/2017","21:03","217CR0024103","T/S","T/S @ SHIELDS AVE AND WARREN AVE","SHIELDS AVE AND WARREN AVE","",""
"09/13/2017","21:05","217CR0024104","T/S","T/S @ WYNNE AVE AND DEWEY BLVD","WYNNE AVE AND DEWEY BLVD","",""
"09/13/2017","21:12","217CR0024105","T/S","T/S @ TEXAS AVE AND GEORGE ST","TEXAS AVE AND GEORGE ST","",""
"09/13/2017","21:17","217CR0024106","DETENTION BUSINESS","DETENTION BUSINESS","************","",""
"09/13/2017","21:28","217CR0024107","CITIZEN AID","CITIZEN AID","2800 BLK ELIZABETH WARREN AVE","",""
"09/13/2017","21:28","217CR0024108","ASSIST OTHER AGENCY","ASSIST OTHER AGENCY","2623 LOCUST","",""
"09/13/2017","21:33","217CR0024109","HIT AND RUN","HIT AND RUN","109 STANDBY CREEK RD","",""
"09/13/2017","21:41","217CR0024110","ATL","ATL","900 BLK NEVADA","",""
"09/13/2017","21:49","217CR0024111","DISTURBANCE","DISTURBANCE","1300 BLOCK HARRISON AVE","",""
"09/13/2017","22:06","217CR0024112","DISTURBANCE","DISTURBANCE","1300 BLK E PARK PLACE","",""
"09/13/2017","22:09","217CR0024113","MEDICAL - EMERGENCY","MEDICAL - EMERGENCY","1125 S MAIN #107","",""
"09/13/2017","22:25","217CR0024114","ASSAULT","PFMA - SERIOUS BODILY INJURY","3610 HARTFORD","ARREST(s) MADE",""
"09/13/2017","22:58","217CR0024115","DISTURBANCE","DISTURBANCE","847 W BROADWAY #B","",""
"09/13/2017","23:38","217CR0024116","BUSINESS CHECK","BUSINESS CHECK","FLYING J IN ROCKER","",""
"09/14/2017","00:07","217CR0024117","SUSPICIOUS ACTIVITY","SUSPICIOUS ACTIVITY","DEWEY AND PAXSON","",""
"09/14/2017","00:15","217CR0024118","ATL","ATL","500 BLK S MAIN","",""
"09/14/2017","00:33","217CR0024119","ALARM - BURGLARY","ALARM - BURGLARY","************","",""
"09/14/2017","00:43","217CR0024120","T/S","T/S","I15 MM 123 EB","",""
"09/14/2017","00:44","217CR0024121","SUSPICIOUS ACTIVITY","SUSPICIOUS ACTIVITY","2325 HARRISON/LUCKY CHARM CASI","",""
"09/14/2017","00:57","217CR0024122","MEDICAL - EMERGENCY","MEDICAL - EMERGENCY","COBBAN ST AND JOHNS ST","",""
"09/14/2017","01:11","217CR0024123","T/S","T/S","WASHINGTON AND MERCURY","",""
"09/14/2017","01:57","217CR0024124","CITIZEN AID","CITIZEN AID","4950 MOULTON RESERVOIR RD","",""
"09/14/2017","02:25","217CR0024125","BUSINESS CHECK","BUSINESS CHECK","531 S MONTANA/TOWN PUMP","",""
"09/14/2017","03:29","217CR0024126","OPEN BUILDING","OPEN BUILDING","4 MILE RD AND WYNNE AVE","",""
"09/14/2017","03:47","217CR0024127","STOLEN VEHICLE","CRIMINAL CONTEMPT","1445 WATERLINE RD","ARREST(s) MADE",""
"09/14/2017","05:54","217CR0024128","SUSPICIOUS ACTIVITY","SUSPICIOUS ACTIVITY","DELAWARE AND SECOND","",""
"09/14/2017","06:00","217CR0024129","ALARM - BURGLARY","ALARM - BURGLARY","************","",""
"09/14/2017","06:26","217CR0024130","MEDICAL - EMERGENCY","MEDICAL - EMERGENCY","1515 OREGON AVE #306","",""
"09/14/2017","07:34","217CR0024131","T/S","T/S @ THORNTON ST AND FARRELL ST","THORNTON ST AND FARRELL ST","",""
"09/14/2017","07:52","217CR0024133","SUSPICIOUS ACTIVITY","SUSPICIOUS ACTIVITY","2600 BLK ELM","",""